Location: Unspecified
(0.0000°N, 0.0000°E)
Time: 10:59:46
(UTC+00:00)

Explorer 11/Cluster Stage 4 - Pass Details

Date: 07 October 2020
Orbit: 467 x 1258 km, 28.8° (Epoch: 28 October)

Event Time Altitude Azimuth Distance (km) Brightness Sun altitude
Rises 15:56:09 0° 231° (SW) 3,269 10.6 27.7°
Reaches altitude 10° 15:58:59 10° 225° (SW) 2,198 9.8 27.0°
Maximum altitude 16:03:49 46° 152° (SSE) 829 6.8 25.8°
Drops below altitude 10° 16:07:47 10° 78° (ENE) 1,800 8.0 24.8°
Sets 16:09:54 0° 71° (ENE) 2,613 8.7 24.3°
